Voltar ao catálogo

COSMOS 970 DEB

AtivoLEO
NORAD 10579·DEBRIS·🇷🇺 Russia

Lançado Dec 21, 1977 de Baikonur Cosmodrome

Loading…

Próximas Passagens (próximas 24 horas)

TLE

AtualizadoSource: Space-Track

Época: Sep 14, 2026, 11:53 UTC

1 10579U 77121W   26257.49565203  .00000035  00000-0  21873-3 0  9998
2 10579  65.6448 274.7141 0047067  82.2713  69.2798 13.33358169368370

Acompanhe COSMOS 970 DEB em tempo real com AllMySat

Download on the App Store